OneWeb SL0307

operational
NORAD ID: 49189 Int'l Des: 2021-083 Owner: ONEWEBN Country: UK Constellation: oneweb
LEOCIRCULARPOLARONEWEB_TYPE

Über OneWeb SL0307

Beschreibung wird geladen...

Live-Position

3D-Globus wird geladen...

Nächste Überflüge

Höhenverlauf

Altitude vs Time

uPlot chart will show altitude changes over time

Zweizeiliger Elementsatz

1 49189U 21083D 26037.28652813 .00000185 00000-0 47096-3 0 9991
2 49189 87.9014 346.2612 0001780 80.5647 279.5684 13.13471761213744
Epoch: 6. Feb. 2026 • Age: 8 hours

Aktueller Status

Höhe 1221.5 km
Geschwindigkeit 7.25 km/s
Subsatellitenpunkt 76.87°N, 0.25°W
Startdatum 14. Sept. 2021
Alter 4.3 years
Typ internet

Technische Details

Klassifizierung Payload
Masse 148.00 kg
Trockenmasse 140.00 kg
Gesamtmasse 148.00 kg
Länge 1.30 m
Durchmesser 1.00 m
Spannweite 5.00 m
Form Trapezoid+2 pan
Hersteller ONEWUS
Bus-Typ ARROW
Phasenstatus In Orbit
Besitzer/Staat ONEWEBN/UK

Große Konstellationen

Loading constellations...